Flag for Austria Weather past 2 weeks in St. Pölten, Lower Austria, Austria

Now
50 °F

Partly cloudy.


Feels Like: 45 °F
Forecast: 33 / 64 °F
Wind: 13 mph from West

Location: Tulln Airport

Current Time: Sep 23, 2014 at 7:17:56 AM

Latest Report: Sep 23, 2014 at 6:50 AM


Visibility: 9 mi

Pressure: 29.98 "Hg

Humidity: 82%

Dew point: 45 °F

Location of St. PöltenLocation

Historic Weather in St. Pölten — Graph

°F

St. Pölten temperature yesterday

Maximum temperature yesterday: 61 °F (at 10:50 AM)
Minimum temperature yesterday: 50 °F (at 9:50 PM)
Average temperature yesterday: 56 °F

Past Weeks' High & Low Weather Summary

 TemperatureHumidityPressure
High79 °F (Sep 20, 1:50 PM)100% (Sep 8, 6:50 AM)30.09 "Hg (Sep 8, 6:50 AM)
Low50 °F (Sep 22, 9:50 PM)50% (Sep 10, 3:50 PM)29.83 "Hg (Sep 12, 5:50 AM)
Average63 °F80%29.99 "Hg
* Reported Sep 8 5:50 AM — Sep 23 5:50 AM, St. Pölten, Weather by CustomWeather, © 2014

Note: Actual official high and low records may vary slightly from our data, if they occured in-between our weather recording intervals... More about our weather records

Advertising

St. Pölten weather history for previous 24 hours

 ConditionsComfort  
Time TempWeatherWind HumidityBarometerVisibility
5:50 AM
Sep 23
50 °FPartly cloudy.13 mph76%29.95 "Hg6 mi
9:50 PM
Sep 22
50 °FPassing clouds.8 mph88%29.95 "Hg11 mi
8:50 PM52 °FPartly cloudy.7 mph77%29.95 "Hg11 mi
7:50 PM52 °FScattered clouds.7 mph88%29.92 "Hg12 mi
6:50 PM54 °FPartly sunny.13 mph77%29.92 "Hg16 mi
5:50 PM54 °FPartly sunny.12 mph82%29.89 "Hg16 mi
4:50 PM57 °FSprinkles. Broken clouds.15 mph67%29.89 "Hg12 mi
3:50 PM61 °FScattered clouds.13 mph59%29.89 "Hg12 mi
2:50 PM57 °FBroken clouds.14 mph72%29.89 "Hg22 mi
1:50 PM61 °FBroken clouds.18 mph59%29.89 "Hg22 mi
12:50 PM61 °FBroken clouds.13 mph63%29.89 "Hg9 mi
11:50 AM59 °FBroken clouds.20 mph68%29.92 "Hg9 mi
10:50 AM61 °FPartly sunny.17 mph59%29.92 "Hg11 mi
9:50 AM57 °FPartly sunny.14 mph77%29.92 "Hg12 mi
8:50 AM55 °FPartly sunny.14 mph82%29.92 "Hg12 mi
7:50 AM55 °FBroken clouds.14 mph88%29.92 "Hg12 mi
Weather by CustomWeather, © 2014

See weather overviewHow to use our weather pages